Regional Weather Roundup
Issued by NWS

Current Version |  Previous Version |  Text Only |  Print | Product List |  Glossary On
Versions: 1 2 3 4 5 6 7 8 9 10 11 12 13 14 15 16 17 18 19 20 21 22 23 24 25 26 27 28
009
ASUS45 KPSR 261510
RWRAZ

ARIZONA HOURLY REGIONAL WEATHER ROUNDUP
NATIONAL WEATHER SERVICE PHOENIX AZ
800 AM MST SUN MAY 26 2024

NOTE: FAIR INDICATES FEW OR NO CLOUDS BELOW 12,000 FEET WITH NO
SIGNIFICANT WEATHER AND/OR OBSTRUCTIONS TO VISIBILITY.

AZZ001>003-036-261600-
NORTHWEST ARIZONA

CITY           SKY/WX    TMP DP  RH WIND       PRES   REMARKS
BULLHEAD CITY  SUNNY     75  34  22 SW3       29.88  TC  24
KINGMAN        SUNNY     69  34  27 W3        30.00R TC  21
$$

AZZ004>008-015-016-018-261600-
NORTH CENTRAL ARIZONA

CITY           SKY/WX    TMP DP  RH WIND       PRES   REMARKS
GRAND CANYON   SUNNY     58  31  35 SW7       30.16R TC  14
WILLIAMS       SUNNY     59  30  33 CALM      30.16R TC  15
PRESCOTT       SUNNY     63  35  35 CALM      30.10R TC  17
FLAGSTAFF      SUNNY     57  32  38 S5        30.17R TC  14
PAYSON         SUNNY     64  30  27 CALM      30.12S TC  18
PAGE           SUNNY     66  36  32 N3        30.04R TC  19
$$

AZZ009>014-017-261600-
NORTHEAST ARIZONA

CITY           SKY/WX    TMP DP  RH WIND       PRES   REMARKS
WINSLOW        SUNNY     62  29  28 SE6       30.09R TC  17
SHOW LOW       SUNNY     61  25  25 S8        30.18R TC  16
$$

AZZ540-542>544-546-548-261600-
GREATER PHOENIX AREA

CITY           SKY/WX    TMP DP  RH WIND       PRES   REMARKS
PHOENIX        MOSUNNY   77  35  21 E7        29.91R TC  25
BUCKEYE        SUNNY     75  39  27 SE3       29.92R TC  24
GLENDALE       SUNNY     75  37  25 CALM      29.89  TC  24
LUKE AFB       SUNNY     75  37  24 SW3       29.90R TC  24
DEER VALLEY    SUNNY     74  39  28 VRB3      29.93R TC  23
SCOTTSDALE     SUNNY     76  38  25 CALM      29.95R TC  24
MESA-FALCON    SUNNY     76  36  23 NE3       29.93R TC  24
MESA-GATEWAY   SUNNY     73  34  23 SE5       29.95R TC  23
CHANDLER       SUNNY     73  39  29 E5        29.93R TC  23
$$

AZZ539-553-261600-
SOUTHWEST MARICOPA COUNTY AND PINAL COUNTY

CITY           SKY/WX    TMP DP  RH WIND       PRES   REMARKS
CASA GRANDE    SUNNY     75  32  20 CALM      29.95R TC  24
GILA BEND      SUNNY     79  41  25 CALM      29.91R TC  26
$$

AZZ503-504-507>509-261600-
SOUTHEAST ARIZONA

CITY           SKY/WX    TMP DP  RH WIND       PRES   REMARKS
TUCSON         SUNNY     71  33  24 SE5       30.01R TC  22
DAVIS-MONTHAN  SUNNY     73  30  20 SE5       29.98R TC  23
RYAN FIELD     SUNNY     72  27  18 E5        29.97R TC  22
NOGALES        SUNNY     68  32  26 CALM      30.05R TC  20
SIERRA VISTA   SUNNY     68  25  20 SE3       30.10R TC  20
DOUGLAS        SUNNY     68  26  20 VRB3      30.07R TC  20
SAFFORD        SUNNY     70  31  23 S7        30.01R TC  21
$$

AZZ532-261600-
SOUTHWEST ARIZONA

CITY           SKY/WX    TMP DP  RH WIND       PRES   REMARKS
YUMA           SUNNY     75  44  33 CALM      29.87R TC  24
$$

CAZ041-043-047-048-061-525>527-560>570-261600-
SOUTHERN CALIFORNIA

CITY           SKY/WX    TMP DP  RH WIND       PRES   REMARKS
DOWNTOWN L.A.  NOT AVBL
L.A. AIRPORT   CLOUDY    60  52  74 SE6       30.02R TC  16
SAN DIEGO      CLOUDY    62  51  67 CALM      30.05R TC  17
BURBANK        CLOUDY    57  51  80 CALM      30.02R TC  14
ONTARIO        CLOUDY    58  48  69 SW3       30.02R TC  14
RIVERSIDE      CLOUDY    58  51  78 CALM      30.02R TC  14
PALM SPRINGS   SUNNY     73  48  41 NW8       29.90R TC  23
EL CENTRO NAS  SUNNY    N/A N/A N/A S5        29.88R
IMPERIAL       SUNNY     70  42  36 SW3       29.87R TC  21
BLYTHE         SUNNY     73  46  38 CALM      29.88R TC  23
NEEDLES        SUNNY     79  40  24 CALM      29.89R TC  26
$$

NVZ020-UTZ003-261600-
SOUTHERN NEVADA-UTAH

CITY           SKY/WX    TMP DP  RH WIND       PRES   REMARKS
LAS VEGAS      SUNNY     75  33  21 W5        29.93R TC  24
SALT LAKE CITY PTSUNNY   57  42  57 SE7       30.04R TC  14
$$

NMZ009-TXZ055-261600-
NEW MEXICO-WEST TEXAS

CITY           SKY/WX    TMP DP  RH WIND       PRES   REMARKS
ALBUQUERQUE    SUNNY     64  30  27 W3        30.09R TC  18
EL PASO        SUNNY     79  24  13 NW9G20    30.02R TC  26
$$


........................KEY........................
SKY/WX - SKY CONDITION/WEATHER
TMP    - TEMPERATURE IN FAHRENHEIT
DP     - DEW POINT IN FAHRENHEIT
RH     - RELATIVE HUMIDITY IN PERCENT
WIND   - DIRECTION AND SPEED IN MILES PER HOUR (MPH)
VRB    - VARIABLE WIND DIRECTION
PRES   - MEAN SEA LEVEL PRESSURE IN INCHES OF MERCURY
         F - FALLING PRESSURE   R - RISING PRESSURE
         S - STEADY PRESSURE
VSB    - VISIBILITY IN MILES
HX     - HEAT INDEX IN FAHRENHEIT
WCI    - WIND CHILL INDEX IN FAHRENHEIT
TC     - TEMPERATURE IN CELSIUS WHICH IS ALSO KNOWN AS
         TEMPERATURE IN CENTIGRADE
AFB    - AIR FORCE BASE
         LUKE AFB IS LUKE AIR FORCE BASE
         DAVIS-MONTHAN IS DAVIS-MONTHAN AIR FORCE BASE
NAS    - NAVAL AIR STATION
         EL CENTRO NAS IS EL CENTRO NAVAL AIR STATION
N/A    - NOT AVAILABLE